CW5229 Weather Reports


Display with metric or nautical units.
time (UTC)temp
F
wind
direction
speed
MPH
gust
MPH
rain 1hr
in
rain 24hr
in
rain mn
in
humidity
%
barometer
mb
20260510224528 62 83 1.0 4.0 0.00 0.00 0.00 36 1018.2
20260510223027 61 49 1.0 6.0 0.00 0.00 0.00 37 1018.2
20260510221529 63 143 0.0 5.0 0.00 0.00 0.00 37 1018.1
20260510220026 63 53 1.0 7.0 0.00 0.00 0.00 36 1017.9
20260510214557 63 154 1.0 6.0 0.00 0.00 0.00 36 1017.9
20260510213101 63 64 0.0 6.0 0.00 0.00 0.00 37 1017.8
20260510211554 63 286 0.0 5.0 0.00 0.00 0.00 38 1017.6
20260510210051 63 297 1.0 10.0 0.00 0.00 0.00 38 1017.4
20260510204603 64 6 1.0 5.0 0.00 0.00 0.00 37 1017.4
20260510203049 64 330 0.0 4.0 0.00 0.00 0.00 37 1017.5
20260510201549 63 76 0.0 5.0 0.00 0.00 0.00 38 1017.9
20260510200049 62 347 3.0 9.0 0.00 0.00 0.00 37 1017.8
20260510194546 63 39 3.0 7.0 0.00 0.00 0.00 38 1017.9
20260510193047 62 68 3.0 7.0 0.00 0.00 0.00 40 1018.0
20260510191525 61 58 4.0 9.0 0.00 0.00 0.00 38 1017.9
20260510190028 61 156 1.0 5.0 0.00 0.00 0.00 42 1018.0
20260510184509 60 113 2.0 11.0 0.00 0.00 0.00 42 1018.1
20260510183008 59 46 1.0 9.0 0.00 0.00 0.00 44 1018.0
20260510181523 59 37 2.0 8.0 0.00 0.00 0.00 43 1018.0
20260510180004 60 77 2.0 7.0 0.00 0.00 0.00 40 1017.8
20260510174528 63 110 2.0 8.0 0.00 0.00 0.00 36 1017.8
20260510173027 65 281 1.0 3.0 0.00 0.00 0.00 35 1017.9
20260510171522 65 204 2.0 7.0 0.00 0.00 0.00 35 1018.1
20260510170019 62 314 2.0 5.0 0.00 0.00 0.00 38 1018.1
20260510164520 62 81 1.0 6.0 0.00 0.00 0.00 39 1017.9
20260510163018 63 51 1.0 6.0 0.00 0.00 0.00 36 1017.9
20260510161514 61 45 3.0 6.0 0.00 0.00 0.00 35 1017.6
20260510160010 62 3 1.0 5.0 0.00 0.00 0.00 39 1017.5
20260510154510 62 43 1.0 4.0 0.00 0.00 0.00 38 1017.4
20260510153014 61 103 1.0 4.0 0.00 0.00 0.00 41 1017.5
20260510151538 61 235 0.0 3.0 0.00 0.00 0.00 38 1017.5
20260510150044 60 188 0.0 3.0 0.00 0.00 0.00 40 1017.6
20260510144545 59 335 0.0 3.0 0.00 0.00 0.00 40 1017.6
20260510143032 58 9 0.0 5.0 0.00 0.00 0.00 40 1017.6
20260510141531 58 80 1.0 3.0 0.00 0.00 0.00 42 1017.3
20260510140030 57 67 0.0 3.0 0.00 0.00 0.00 43 1017.2
20260510134527 56 320 0.0 3.0 0.00 0.00 0.00 47 1017.0
20260510133025 55 54 1.0 4.0 0.00 0.00 0.00 44 1016.8
20260510131524 54 60 1.0 5.0 0.00 0.00 0.00 45 1016.8
20260510130022 54 101 1.0 3.0 0.00 0.00 0.00 49 1016.7
20260510124519 54 75 0.0 2.0 0.00 0.00 0.00 54 1016.6
20260510123017 55 92 0.0 2.0 0.00 0.00 0.00 55 1016.5
20260510121515 53 128 0.0 1.0 0.00 0.00 0.00 62 1016.2
20260510120011 50 27 0.0 2.0 0.00 0.00 0.00 65 1015.8
20260510114508 47 297 0.0 1.0 0.00 0.00 0.00 73 1015.8
20260510113009 44 297 0.0 1.0 0.00 0.00 0.00 76 1015.6
20260510111504 42 307 0.0 0.0 0.00 0.00 0.00 78 1015.3
20260510110001 41 301 0.0 1.0 0.00 0.00 0.00 80 1015.0
20260510104619 42 9 0.0 1.0 0.00 0.00 0.00 78 1014.7
20260510103100 42 22 0.0 0.0 0.00 0.00 0.00 77 1014.7
20260510101556 43 22 0.0 0.0 0.00 0.00 0.00 74 1014.5
20260510100057 44 22 0.0 2.0 0.00 0.00 0.00 72 1014.3
20260510094551 44 42 0.0 4.0 0.00 0.00 0.00 71 1014.0
20260510093019 43 314 0.0 1.0 0.00 0.00 0.00 72 1013.9
20260510091516 44 314 0.0 3.0 0.00 0.00 0.00 71 1013.7
20260510090014 44 302 0.0 1.0 0.00 0.00 0.00 71 1013.7
20260510084512 45 301 0.0 2.0 0.00 0.00 0.00 70 1013.6
20260510083010 45 33 0.0 2.0 0.00 0.00 0.00 70 1013.4
20260510081508 45 24 0.0 2.0 0.00 0.00 0.00 69 1013.4
20260510080008 45 297 0.0 3.0 0.00 0.00 0.00 72 1013.1
20260510074501 45 302 0.0 3.0 0.00 0.00 0.00 76 1012.8
20260510073058 43 296 0.0 2.0 0.00 0.00 0.00 83 1012.6
20260510071601 41 24 0.0 1.0 0.00 0.00 0.00 84 1012.2
20260510070050 42 24 0.0 0.0 0.00 0.00 0.00 84 1011.9
20260510064605 42 24 0.0 0.0 0.00 0.00 0.00 84 1011.8
20260510063049 42 24 0.0 0.0 0.00 0.00 0.00 83 1011.7
20260510061544 43 24 0.0 0.0 0.00 0.00 0.00 82 1011.6
20260510060043 43 24 0.0 0.0 0.00 0.00 0.00 81 1011.3
20260510054534 44 24 0.0 1.0 0.00 0.00 0.00 81 1011.1
20260510053030 45 24 0.0 0.0 0.00 0.00 0.00 80 1010.9
20260510051538 45 24 0.0 0.0 0.00 0.00 0.00 78 1010.7
20260510050021 46 24 0.0 0.0 0.00 0.00 0.00 77 1010.4
20260510044522 47 24 0.0 0.0 0.00 0.00 0.00 76 1010.2
20260510043014 48 24 0.0 1.0 0.00 0.00 0.00 74 1010.0
20260510041510 48 24 0.0 1.0 0.00 0.00 0.00 72 1009.7
20260510040039 49 24 0.0 0.0 0.00 0.00 0.00 71 1009.5
20260510034535 49 24 0.0 0.0 0.00 0.00 0.00 69 1009.2
20260510033030 50 24 0.0 1.0 0.00 0.00 0.00 68 1009.1
20260510031528 50 51 0.0 0.0 0.00 0.00 0.00 67 1009.1
20260510030025 51 51 0.0 1.0 0.00 0.00 0.00 65 1009.1
20260510024523 52 51 0.0 0.0 0.00 0.00 0.00 64 1009.0
20260510023049 52 51 0.0 1.0 0.00 0.00 0.00 62 1008.8
20260510021546 53 51 0.0 1.0 0.00 0.00 0.00 60 1008.3
20260510020047 54 58 0.0 3.0 0.00 0.00 0.00 58 1008.0
20260510014539 55 64 1.0 4.0 0.00 0.00 0.00 56 1007.8
20260510013033 56 149 1.0 4.0 0.00 0.00 0.00 56 1007.2
20260510011535 57 43 1.0 5.0 0.00 0.00 0.00 55 1006.8
20260510010034 58 36 3.0 9.0 0.00 0.00 0.00 53 1006.4
20260510004517 60 37 3.0 7.0 0.00 0.00 0.00 50 1006.1
20260510003014 62 35 2.0 11.0 0.00 0.00 0.00 47 1005.6
20260510001509 69 321 0.0 8.0 0.00 0.00 0.00 45 1004.8
20260510000004 69 245 1.0 7.0 0.00 0.00 0.00 43 1004.5
20260509234503 70 270 2.0 8.0 0.00 0.00 0.00 42 1004.3
20260509233058 70 226 1.0 9.0 0.00 0.00 0.00 40 1004.1
20260509231558 71 281 2.0 10.0 0.00 0.00 0.00 40 1004.0
20260509230054 71 245 3.0 9.0 0.00 0.00 0.00 39 1003.8